sat.trackr.live / text

‹ back to catalog

KUIPER-00070

NORAD 64817 · 2025-151B

PAYLOAD ACTIVE UNKNOWN

§ Identity

Operator
Country
US
Launch date
2025-07-16
Launch site
AFETR
Launch vehicle
Mass (kg)
RCS (m²)

External: N2YO · Heavens-Above · Gunter

§ Orbital elements

Epoch: 2026-05-24T21:28:02.607168Z

Period
97.30 min
Inclination
51.9001°
Eccentricity
0.0000788
Mean motion
14.79973525 rev/d
Perigee alt
628.9 km
Apogee alt
630.0 km
Semi-major
7,007.5 km
B*
4.6040e-4
RAAN
328.5780°
Arg perigee
124.2770°
Mean anomaly
235.8267°
Rev number
4,770

§ Raw data

KUIPER-000701 64817U 25151B   26144.89447462  .00003294  00000+0  46040-3 0  99952 64817  51.9001 328.5780 0000788 124.2770 235.8267 14.79973525 47706

JSON: /api/v1/satellites/64817 · /tle

For live sub-satellite position, see the globe view (requires WebGL).

§ Visibility from observer

Set your observer location to see the next 7 days of passes ≥ 10°. The values pass through the URL so the page stays shareable.

No JS? Fill the form by hand. The geolocation button needs JavaScript.